Data supplied by UK-AIR on 21/1/2015
All Data GMT hour ending 
Status: R =Ratified P=Provisional,P*=As supplied
,,Tower Hamlets Roadside,,,,,,,,,,,,,,,,,,,,,,,
Date,time,"Nitric oxide",status,unit,"Nitrogen dioxide",status,unit,"Nitrogen oxides as nitrogen dioxide",status,unit
 
01-01-2013,01:00,9.64911,R,ugm-3,39.55943,R,ugm-3,54.35453,R,ugm-3
01-01-2013,02:00,22.18614,R,ugm-3,58.96365,R,ugm-3,92.98193,R,ugm-3
01-01-2013,03:00,15.01500,R,ugm-3,42.54069,R,ugm-3,65.56337,R,ugm-3
01-01-2013,04:00,22.40587,R,ugm-3,58.36520,R,ugm-3,92.72039,R,ugm-3
01-01-2013,05:00,19.07777,R,ugm-3,49.37549,R,ugm-3,78.62766,R,ugm-3
01-01-2013,06:00,12.61519,R,ugm-3,39.44579,R,ugm-3,58.78882,R,ugm-3
01-01-2013,07:00,17.41418,R,ugm-3,50.77735,R,ugm-3,77.47872,R,ugm-3
01-01-2013,08:00,13.46647,R,ugm-3,50.60093,R,ugm-3,71.24923,R,ugm-3
01-01-2013,09:00,13.31181,R,ugm-3,50.05108,R,ugm-3,70.46224,R,ugm-3
01-01-2013,10:00,21.01233,R,ugm-3,56.87249,R,ugm-3,89.09094,R,ugm-3
01-01-2013,11:00,25.42434,R,ugm-3,56.21603,R,ugm-3,95.19947,R,ugm-3
01-01-2013,12:00,20.66433,R,ugm-3,49.18089,R,ugm-3,80.86576,R,ugm-3
01-01-2013,13:00,24.53408,R,ugm-3,51.77472,R,ugm-3,89.39312,R,ugm-3
01-01-2013,14:00,25.50167,R,ugm-3,52.83186,R,ugm-3,91.93388,R,ugm-3
01-01-2013,15:00,27.12690,R,ugm-3,52.75870,R,ugm-3,94.35271,R,ugm-3
01-01-2013,16:00,33.55081,R,ugm-3,66.98101,R,ugm-3,118.42487,R,ugm-3
01-01-2013,17:00,39.93574,R,ugm-3,73.94442,R,ugm-3,135.17837,R,ugm-3
01-01-2013,18:00,36.99492,R,ugm-3,79.24061,R,ugm-3,135.96536,R,ugm-3
01-01-2013,19:00,42.87719,R,ugm-3,81.28938,R,ugm-3,147.03348,R,ugm-3
01-01-2013,20:00,43.49585,R,ugm-3,79.55426,R,ugm-3,146.24696,R,ugm-3
01-01-2013,21:00,41.40631,R,ugm-3,75.13782,R,ugm-3,138.62661,R,ugm-3
01-01-2013,22:00,45.12139,R,ugm-3,72.64679,R,ugm-3,141.83196,R,ugm-3
01-01-2013,23:00,38.77513,R,ugm-3,72.03527,R,ugm-3,131.48963,R,ugm-3
01-01-2013,24:00,41.83195,R,ugm-3,75.75460,R,ugm-3,139.89603,R,ugm-3
02-01-2013,01:00,17.67466,R,ugm-3,60.21315,R,ugm-3,87.31391,R,ugm-3
02-01-2013,02:00,13.02348,R,ugm-3,50.54483,R,ugm-3,70.51388,R,ugm-3
02-01-2013,03:00,10.96907,R,ugm-3,48.24233,R,ugm-3,65.06134,R,ugm-3
02-01-2013,04:00,9.41836,R,ugm-3,49.40848,R,ugm-3,63.84977,R,ugm-3
02-01-2013,05:00,10.58116,R,ugm-3,49.13978,R,ugm-3,65.36399,R,ugm-3
02-01-2013,06:00,20.23277,R,ugm-3,54.45318,R,ugm-3,85.47632,R,ugm-3
02-01-2013,07:00,40.38789,R,ugm-3,69.52846,R,ugm-3,131.45569,R,ugm-3
02-01-2013,08:00,69.10853,R,ugm-3,79.04171,R,ugm-3,185.00664,R,ugm-3
02-01-2013,09:00,92.82999,R,ugm-3,83.80240,R,ugm-3,226.13974,R,ugm-3
02-01-2013,10:00,80.93044,R,ugm-3,80.84568,R,ugm-3,204.93728,R,ugm-3
02-01-2013,11:00,78.60485,R,ugm-3,81.32189,R,ugm-3,201.84764,R,ugm-3
02-01-2013,12:00,42.48086,R,ugm-3,72.13424,R,ugm-3,137.27064,R,ugm-3
02-01-2013,13:00,42.20988,R,ugm-3,73.88274,R,ugm-3,138.60366,R,ugm-3
02-01-2013,14:00,23.25622,R,ugm-3,67.32430,R,ugm-3,102.98334,R,ugm-3
02-01-2013,15:00,18.76002,R,ugm-3,59.19522,R,ugm-3,87.96018,R,ugm-3
02-01-2013,16:00,19.49623,R,ugm-3,65.27554,R,ugm-3,95.16935,R,ugm-3
02-01-2013,17:00,23.72084,R,ugm-3,72.42733,R,ugm-3,108.79878,R,ugm-3
02-01-2013,18:00,30.81392,R,ugm-3,74.33362,R,ugm-3,121.58097,R,ugm-3
02-01-2013,19:00,35.34879,R,ugm-3,75.80098,R,ugm-3,130.00171,R,ugm-3
02-01-2013,20:00,30.50428,R,ugm-3,67.05416,R,ugm-3,113.82674,R,ugm-3
02-01-2013,21:00,28.56598,R,ugm-3,63.66569,R,ugm-3,107.46624,R,ugm-3
02-01-2013,22:00,29.26384,R,ugm-3,67.32048,R,ugm-3,112.19108,R,ugm-3
02-01-2013,23:00,29.49615,R,ugm-3,67.99416,R,ugm-3,113.22096,R,ugm-3
02-01-2013,24:00,29.80642,R,ugm-3,64.61094,R,ugm-3,110.31348,R,ugm-3
03-01-2013,01:00,17.08136,R,ugm-3,51.45199,R,ugm-3,77.64304,R,ugm-3
03-01-2013,02:00,15.21789,R,ugm-3,50.01825,R,ugm-3,73.35203,R,ugm-3
03-01-2013,03:00,6.17226,R,ugm-3,36.44173,R,ugm-3,45.90574,R,ugm-3
03-01-2013,04:00,9.08440,R,ugm-3,37.32005,R,ugm-3,51.24926,R,ugm-3
03-01-2013,05:00,11.37475,R,ugm-3,43.82733,R,ugm-3,61.26837,R,ugm-3
03-01-2013,06:00,12.19049,R,ugm-3,44.64110,R,ugm-3,63.33292,R,ugm-3
03-01-2013,07:00,26.98128,R,ugm-3,56.08789,R,ugm-3,97.45861,R,ugm-3
03-01-2013,08:00,43.24763,R,ugm-3,73.40892,R,ugm-3,139.72103,R,ugm-3
03-01-2013,09:00,50.27492,R,ugm-3,78.84664,R,ugm-3,155.93378,R,ugm-3
03-01-2013,10:00,77.64443,R,ugm-3,86.55114,R,ugm-3,205.60427,R,ugm-3
03-01-2013,11:00,74.73323,R,ugm-3,85.97500,R,ugm-3,200.56435,R,ugm-3
03-01-2013,12:00,68.24945,R,ugm-3,79.58247,R,ugm-3,184.23017,R,ugm-3
03-01-2013,13:00,70.50114,R,ugm-3,75.94777,R,ugm-3,184.04800,R,ugm-3
03-01-2013,14:00,73.49060,R,ugm-3,79.56143,R,ugm-3,192.24546,R,ugm-3
03-01-2013,15:00,64.40590,R,ugm-3,72.54208,R,ugm-3,171.29641,R,ugm-3
03-01-2013,16:00,71.74345,R,ugm-3,82.84759,R,ugm-3,192.85268,R,ugm-3
03-01-2013,17:00,72.05403,R,ugm-3,85.46819,R,ugm-3,195.94949,R,ugm-3
03-01-2013,18:00,68.09385,R,ugm-3,86.25758,R,ugm-3,190.66669,R,ugm-3
03-01-2013,19:00,47.36310,R,ugm-3,74.87103,R,ugm-3,147.49343,R,ugm-3
03-01-2013,20:00,45.46097,R,ugm-3,69.52942,R,ugm-3,139.23526,R,ugm-3
03-01-2013,21:00,27.33115,R,ugm-3,65.26693,R,ugm-3,107.17411,R,ugm-3
03-01-2013,22:00,28.57315,R,ugm-3,60.81224,R,ugm-3,104.62379,R,ugm-3
03-01-2013,23:00,24.84622,R,ugm-3,58.45078,R,ugm-3,96.54778,R,ugm-3
03-01-2013,24:00,24.03048,R,ugm-3,53.20432,R,ugm-3,90.05054,R,ugm-3
04-01-2013,01:00,19.28658,R,ugm-3,50.30066,R,ugm-3,79.87301,R,ugm-3
04-01-2013,02:00,11.25065,R,ugm-3,37.07955,R,ugm-3,54.33030,R,ugm-3
04-01-2013,03:00,11.08195,R,ugm-3,38.96002,R,ugm-3,55.95210,R,ugm-3
04-01-2013,04:00,5.67740,R,ugm-3,31.25264,R,ugm-3,39.95786,R,ugm-3
04-01-2013,05:00,7.69927,R,ugm-3,33.80822,R,ugm-3,45.61360,R,ugm-3
04-01-2013,06:00,14.65952,R,ugm-3,44.48236,R,ugm-3,66.95997,R,ugm-3
04-01-2013,07:00,30.71850,R,ugm-3,64.98627,R,ugm-3,112.08732,R,ugm-3
04-01-2013,08:00,34.76256,R,ugm-3,71.19138,R,ugm-3,124.49323,R,ugm-3
04-01-2013,09:00,48.52777,R,ugm-3,77.33146,R,ugm-3,151.73966,R,ugm-3
04-01-2013,10:00,59.14354,R,ugm-3,84.89492,R,ugm-3,175.58041,R,ugm-3
04-01-2013,11:00,51.67751,R,ugm-3,73.96163,R,ugm-3,153.19938,R,ugm-3
04-01-2013,12:00,67.23134,R,ugm-3,87.63697,R,ugm-3,190.72358,R,ugm-3
04-01-2013,13:00,53.50512,R,ugm-3,71.58488,R,ugm-3,153.62491,R,ugm-3
04-01-2013,14:00,64.93693,R,ugm-3,82.27623,R,ugm-3,181.84480,R,ugm-3
04-01-2013,15:00,69.52575,R,ugm-3,85.15263,R,ugm-3,191.75729,R,ugm-3
04-01-2013,16:00,72.24736,R,ugm-3,77.08762,R,ugm-3,187.86535,R,ugm-3
04-01-2013,17:00,78.97436,R,ugm-3,90.18776,R,ugm-3,211.28009,R,ugm-3
04-01-2013,18:00,93.86712,R,ugm-3,94.29486,R,ugm-3,238.22243,R,ugm-3
04-01-2013,19:00,84.80736,R,ugm-3,90.91403,R,ugm-3,220.95017,R,ugm-3
04-01-2013,20:00,65.67627,R,ugm-3,84.06107,R,ugm-3,184.76328,R,ugm-3
04-01-2013,21:00,56.07175,R,ugm-3,82.85380,R,ugm-3,168.82928,R,ugm-3
04-01-2013,22:00,49.26679,R,ugm-3,77.65802,R,ugm-3,153.19938,R,ugm-3
04-01-2013,23:00,46.89443,R,ugm-3,79.65323,R,ugm-3,151.55702,R,ugm-3
04-01-2013,24:00,56.18837,R,ugm-3,75.62025,R,ugm-3,161.77455,R,ugm-3
05-01-2013,01:00,31.88431,R,ugm-3,61.48560,R,ugm-3,110.37420,R,ugm-3
05-01-2013,02:00,22.74535,R,ugm-3,51.94605,R,ugm-3,86.82176,R,ugm-3
05-01-2013,03:00,13.12534,R,ugm-3,41.82351,R,ugm-3,61.94874,R,ugm-3
05-01-2013,04:00,15.34522,R,ugm-3,39.69824,R,ugm-3,63.22725,R,ugm-3
05-01-2013,05:00,19.51245,R,ugm-3,44.09078,R,ugm-3,74.00945,R,ugm-3
05-01-2013,06:00,24.76982,R,ugm-3,50.64826,R,ugm-3,88.62812,R,ugm-3
05-01-2013,07:00,28.47025,R,ugm-3,59.53278,R,ugm-3,103.18655,R,ugm-3
05-01-2013,08:00,24.30271,R,ugm-3,63.91288,R,ugm-3,101.17651,R,ugm-3
05-01-2013,09:00,25.15960,R,ugm-3,69.96977,R,ugm-3,108.54728,R,ugm-3
05-01-2013,10:00,28.62616,R,ugm-3,68.30924,R,ugm-3,112.20207,R,ugm-3
05-01-2013,11:00,29.56101,R,ugm-3,62.91647,R,ugm-3,108.24272,R,ugm-3
05-01-2013,12:00,40.50513,R,ugm-3,68.12516,R,ugm-3,130.23217,R,ugm-3
05-01-2013,13:00,44.47747,R,ugm-3,66.90738,R,ugm-3,135.10522,R,ugm-3
05-01-2013,14:00,31.43009,R,ugm-3,59.68482,R,ugm-3,107.87695,R,ugm-3
05-01-2013,15:00,34.31260,R,ugm-3,61.41707,R,ugm-3,114.02899,R,ugm-3
05-01-2013,16:00,33.14419,R,ugm-3,61.50361,R,ugm-3,112.32399,R,ugm-3
05-01-2013,17:00,39.02490,R,ugm-3,64.54688,R,ugm-3,124.38422,R,ugm-3
05-01-2013,18:00,46.19126,R,ugm-3,70.00515,R,ugm-3,140.83076,R,ugm-3
05-01-2013,19:00,45.76281,R,ugm-3,70.72329,R,ugm-3,140.89196,R,ugm-3
05-01-2013,20:00,45.02254,R,ugm-3,71.73644,R,ugm-3,140.77004,R,ugm-3
05-01-2013,21:00,39.84282,R,ugm-3,66.64298,R,ugm-3,127.73444,R,ugm-3
05-01-2013,22:00,49.61822,R,ugm-3,80.10124,R,ugm-3,156.18144,R,ugm-3
05-01-2013,23:00,24.96471,R,ugm-3,67.34486,R,ugm-3,105.62355,R,ugm-3
05-01-2013,24:00,20.64188,R,ugm-3,65.93248,R,ugm-3,97.58292,R,ugm-3
06-01-2013,01:00,16.01991,R,ugm-3,54.58530,R,ugm-3,79.14881,R,ugm-3
06-01-2013,02:00,12.48256,R,ugm-3,49.51526,R,ugm-3,68.65493,R,ugm-3
06-01-2013,03:00,24.84902,R,ugm-3,53.10678,R,ugm-3,91.20808,R,ugm-3
06-01-2013,04:00,18.29540,R,ugm-3,51.56435,R,ugm-3,79.61690,R,ugm-3
06-01-2013,05:00,20.51902,R,ugm-3,52.54689,R,ugm-3,84.00895,R,ugm-3
06-01-2013,06:00,21.22094,R,ugm-3,51.10439,R,ugm-3,83.64271,R,ugm-3
06-01-2013,07:00,14.74527,R,ugm-3,48.52730,R,ugm-3,71.13639,R,ugm-3
06-01-2013,08:00,41.27191,R,ugm-3,66.66545,R,ugm-3,129.94816,R,ugm-3
06-01-2013,09:00,40.02336,R,ugm-3,68.51914,R,ugm-3,129.88744,R,ugm-3
06-01-2013,10:00,58.59192,R,ugm-3,72.87103,R,ugm-3,162.71072,R,ugm-3
06-01-2013,11:00,51.21913,R,ugm-3,70.63149,R,ugm-3,149.16639,R,ugm-3
06-01-2013,12:00,25.35605,R,ugm-3,57.88133,R,ugm-3,96.76007,R,ugm-3
06-01-2013,13:00,23.95190,R,ugm-3,54.17778,R,ugm-3,90.90352,R,ugm-3
06-01-2013,14:00,19.66025,R,ugm-3,52.76588,R,ugm-3,82.91118,R,ugm-3
06-01-2013,15:00,16.57880,R,ugm-3,49.49837,R,ugm-3,74.91884,R,ugm-3
06-01-2013,16:00,17.55419,R,ugm-3,54.28631,R,ugm-3,81.20236,R,ugm-3
06-01-2013,17:00,20.48004,R,ugm-3,56.02286,R,ugm-3,87.42516,R,ugm-3
06-01-2013,18:00,48.13767,R,ugm-3,75.60065,R,ugm-3,149.41072,R,ugm-3
06-01-2013,19:00,60.85452,R,ugm-3,78.55259,R,ugm-3,171.86155,R,ugm-3
06-01-2013,20:00,27.11131,R,ugm-3,65.25689,R,ugm-3,106.82699,R,ugm-3
06-01-2013,21:00,20.16791,R,ugm-3,54.54976,R,ugm-3,85.47345,R,ugm-3
06-01-2013,22:00,14.27753,R,ugm-3,41.37359,R,ugm-3,63.26550,R,ugm-3
06-01-2013,23:00,9.24499,R,ugm-3,32.74057,R,ugm-3,46.91602,R,ugm-3
06-01-2013,24:00,12.52227,R,ugm-3,31.37600,R,ugm-3,50.57654,R,ugm-3
07-01-2013,01:00,6.88177,R,ugm-3,24.10069,R,ugm-3,34.65259,R,ugm-3
07-01-2013,02:00,4.69234,R,ugm-3,24.84911,R,ugm-3,32.04394,R,ugm-3
07-01-2013,03:00,1.32931,R,ugm-3,17.65285,R,ugm-3,19.69110,R,ugm-3
07-01-2013,04:00,10.08816,R,ugm-3,28.37815,R,ugm-3,43.84645,R,ugm-3
07-01-2013,05:00,17.16628,R,ugm-3,39.47878,R,ugm-3,65.80004,R,ugm-3
07-01-2013,06:00,15.25011,R,ugm-3,35.75084,R,ugm-3,59.13402,R,ugm-3
07-01-2013,07:00,17.90905,R,ugm-3,44.21031,R,ugm-3,71.67046,R,ugm-3
07-01-2013,08:00,43.24795,R,ugm-3,60.76204,R,ugm-3,127.07463,R,ugm-3
07-01-2013,09:00,51.85026,R,ugm-3,61.20861,R,ugm-3,140.71123,R,ugm-3
07-01-2013,10:00,47.07965,R,ugm-3,59.41181,R,ugm-3,131.59960,R,ugm-3
07-01-2013,11:00,33.58948,R,ugm-3,51.29421,R,ugm-3,102.79735,R,ugm-3
07-01-2013,12:00,38.75081,R,ugm-3,49.55622,R,ugm-3,108.97329,R,ugm-3
07-01-2013,13:00,32.29915,R,ugm-3,50.21508,R,ugm-3,99.73974,R,ugm-3
07-01-2013,14:00,24.59551,R,ugm-3,47.59495,R,ugm-3,85.30754,R,ugm-3
07-01-2013,15:00,22.99273,R,ugm-3,47.66763,R,ugm-3,82.92265,R,ugm-3
07-01-2013,16:00,22.24934,R,ugm-3,48.01188,R,ugm-3,82.12705,R,ugm-3
07-01-2013,17:00,19.19938,R,ugm-3,45.96216,R,ugm-3,75.40079,R,ugm-3
07-01-2013,18:00,18.18283,R,ugm-3,45.31908,R,ugm-3,73.19903,R,ugm-3
07-01-2013,19:00,23.42274,R,ugm-3,48.78166,R,ugm-3,84.69602,R,ugm-3
07-01-2013,20:00,22.28863,R,ugm-3,52.59949,R,ugm-3,86.77491,R,ugm-3
07-01-2013,21:00,15.44563,R,ugm-3,46.82565,R,ugm-3,70.50862,R,ugm-3
07-01-2013,22:00,10.98778,R,ugm-3,43.63178,R,ugm-3,60.47947,R,ugm-3
07-01-2013,23:00,13.25599,R,ugm-3,49.26552,R,ugm-3,69.59109,R,ugm-3
07-01-2013,24:00,9.85398,R,ugm-3,42.61911,R,ugm-3,57.72833,R,ugm-3
08-01-2013,01:00,6.16208,R,ugm-3,33.18060,R,ugm-3,42.62899,R,ugm-3
08-01-2013,02:00,6.26685,R,ugm-3,30.24300,R,ugm-3,39.85204,R,ugm-3
08-01-2013,03:00,3.13322,R,ugm-3,21.28708,R,ugm-3,26.09128,R,ugm-3
08-01-2013,04:00,2.66330,R,ugm-3,19.49650,R,ugm-3,23.58017,R,ugm-3
08-01-2013,05:00,6.22715,R,ugm-3,24.19934,R,ugm-3,33.74750,R,ugm-3
08-01-2013,06:00,5.36557,R,ugm-3,26.50103,R,ugm-3,34.72813,R,ugm-3
08-01-2013,07:00,15.39199,R,ugm-3,52.77544,R,ugm-3,76.37617,R,ugm-3
08-01-2013,08:00,20.87513,R,ugm-3,63.04843,R,ugm-3,95.05651,R,ugm-3
08-01-2013,09:00,48.44763,R,ugm-3,78.58893,R,ugm-3,152.87425,R,ugm-3
08-01-2013,10:00,41.04521,R,ugm-3,72.79023,R,ugm-3,135.72534,R,ugm-3
08-01-2013,11:00,35.17043,R,ugm-3,61.46393,R,ugm-3,115.39117,R,ugm-3
08-01-2013,12:00,33.83863,R,ugm-3,54.99250,R,ugm-3,106.87767,R,ugm-3
08-01-2013,13:00,26.39723,R,ugm-3,51.15173,R,ugm-3,91.62692,R,ugm-3
08-01-2013,14:00,35.52279,R,ugm-3,57.86125,R,ugm-3,112.32878,R,ugm-3
08-01-2013,15:00,35.13114,R,ugm-3,62.07497,R,ugm-3,115.94197,R,ugm-3
08-01-2013,16:00,33.29013,R,ugm-3,57.85408,R,ugm-3,108.89823,R,ugm-3
08-01-2013,17:00,31.72383,R,ugm-3,64.84953,R,ugm-3,113.49205,R,ugm-3
08-01-2013,18:00,27.18054,R,ugm-3,64.52727,R,ugm-3,106.20352,R,ugm-3
08-01-2013,19:00,18.48623,R,ugm-3,59.11681,R,ugm-3,87.46197,R,ugm-3
08-01-2013,20:00,13.04208,R,ugm-3,49.88613,R,ugm-3,69.88371,R,ugm-3
08-01-2013,21:00,9.63446,R,ugm-3,41.08528,R,ugm-3,55.85791,R,ugm-3
08-01-2013,22:00,6.93218,R,ugm-3,34.26578,R,ugm-3,44.89498,R,ugm-3
08-01-2013,23:00,7.28486,R,ugm-3,32.25479,R,ugm-3,43.42475,R,ugm-3
08-01-2013,24:00,10.53532,R,ugm-3,34.62008,R,ugm-3,50.77401,R,ugm-3
09-01-2013,01:00,9.04875,R,ugm-3,33.15510,R,ugm-3,47.02965,R,ugm-3
09-01-2013,02:00,8.68246,R,ugm-3,37.07063,R,ugm-3,50.38354,R,ugm-3
09-01-2013,03:00,6.39397,R,ugm-3,28.47426,R,ugm-3,38.27821,R,ugm-3
09-01-2013,04:00,13.45494,R,ugm-3,34.76208,R,ugm-3,55.39269,R,ugm-3
09-01-2013,05:00,34.40241,R,ugm-3,48.83473,R,ugm-3,101.58435,R,ugm-3
09-01-2013,06:00,51.30956,R,ugm-3,58.98150,R,ugm-3,137.65506,R,ugm-3
09-01-2013,07:00,63.23499,R,ugm-3,69.77278,R,ugm-3,166.73175,R,ugm-3
09-01-2013,08:00,66.02021,R,ugm-3,74.94896,R,ugm-3,176.17854,R,ugm-3
09-01-2013,09:00,87.55578,R,ugm-3,84.68454,R,ugm-3,218.93487,R,ugm-3
09-01-2013,10:00,86.18313,R,ugm-3,80.89971,R,ugm-3,213.04533,R,ugm-3
09-01-2013,11:00,129.37245,R,ugm-3,94.54635,R,ugm-3,292.91468,R,ugm-3
09-01-2013,12:00,111.75964,R,ugm-3,87.87459,R,ugm-3,259.23698,R,ugm-3
09-01-2013,13:00,131.88327,R,ugm-3,97.50642,R,ugm-3,299.72461,R,ugm-3
09-01-2013,14:00,107.32642,R,ugm-3,92.95467,R,ugm-3,257.51956,R,ugm-3
09-01-2013,15:00,148.67255,R,ugm-3,105.62451,R,ugm-3,333.58590,R,ugm-3
09-01-2013,16:00,221.63586,R,ugm-3,123.24533,R,ugm-3,463.08223,R,ugm-3
09-01-2013,17:00,194.88283,R,ugm-3,132.30579,R,ugm-3,431.12197,R,ugm-3
09-01-2013,18:00,216.30084,R,ugm-3,135.65697,R,ugm-3,467.31364,R,ugm-3
09-01-2013,19:00,238.11144,R,ugm-3,134.17478,R,ugm-3,499.27390,R,ugm-3
09-01-2013,20:00,228.02983,R,ugm-3,130.98473,R,ugm-3,480.62559,R,ugm-3
09-01-2013,21:00,265.06092,R,ugm-3,140.08776,R,ugm-3,546.50883,R,ugm-3
09-01-2013,22:00,288.47960,R,ugm-3,138.96129,R,ugm-3,581.29051,R,ugm-3
09-01-2013,23:00,291.34340,R,ugm-3,136.59458,R,ugm-3,583.31489,R,ugm-3
09-01-2013,24:00,314.99751,R,ugm-3,141.36387,R,ugm-3,624.35332,R,ugm-3
10-01-2013,01:00,350.20442,R,ugm-3,144.18146,R,ugm-3,681.15409,R,ugm-3
10-01-2013,02:00,308.92378,R,ugm-3,132.27679,R,ugm-3,605.95331,R,ugm-3
10-01-2013,03:00,237.03627,R,ugm-3,108.09402,R,ugm-3,471.54457,R,ugm-3
10-01-2013,04:00,233.22514,R,ugm-3,107.11817,R,ugm-3,464.72507,R,ugm-3
10-01-2013,05:00,236.48621,R,ugm-3,103.59295,R,ugm-3,466.20008,R,ugm-3
10-01-2013,06:00,188.55247,R,ugm-3,85.54565,R,ugm-3,374.65540,R,ugm-3
10-01-2013,07:00,224.14917,R,ugm-3,99.46913,R,ugm-3,443.15972,R,ugm-3
10-01-2013,08:00,261.78894,R,ugm-3,111.67374,R,ugm-3,513.07785,R,ugm-3
10-01-2013,09:00,228.23532,R,ugm-3,103.21906,R,ugm-3,453.17500,R,ugm-3
10-01-2013,10:00,223.04905,R,ugm-3,104.47366,R,ugm-3,446.47743,R,ugm-3
10-01-2013,11:00,236.13260,R,ugm-3,111.69191,R,ugm-3,473.75685,R,ugm-3
10-01-2013,12:00,215.26964,R,ugm-3,106.69503,R,ugm-3,436.77053,R,ugm-3
10-01-2013,13:00,180.61590,R,ugm-3,103.79759,R,ugm-3,380.73811,R,ugm-3
10-01-2013,14:00,187.92383,R,ugm-3,103.77321,R,ugm-3,391.91906,R,ugm-3
10-01-2013,15:00,204.70064,R,ugm-3,114.54488,R,ugm-3,428.41482,R,ugm-3
10-01-2013,16:00,197.51058,R,ugm-3,111.74594,R,ugm-3,414.59127,R,ugm-3
10-01-2013,17:00,201.28241,R,ugm-3,120.46168,R,ugm-3,429.09041,R,ugm-3
10-01-2013,18:00,185.33069,R,ugm-3,120.40622,R,ugm-3,404.57599,R,ugm-3
10-01-2013,19:00,131.50346,R,ugm-3,93.08759,R,ugm-3,294.72342,R,ugm-3
10-01-2013,20:00,115.90535,R,ugm-3,89.23343,R,ugm-3,266.95249,R,ugm-3
10-01-2013,21:00,84.86629,R,ugm-3,83.86599,R,ugm-3,213.99249,R,ugm-3
10-01-2013,22:00,89.46322,R,ugm-3,86.21741,R,ugm-3,223.39243,R,ugm-3
10-01-2013,23:00,81.01588,R,ugm-3,81.90568,R,ugm-3,206.12829,R,ugm-3
10-01-2013,24:00,63.33540,R,ugm-3,74.36374,R,ugm-3,171.47666,R,ugm-3
11-01-2013,01:00,59.02847,R,ugm-3,67.10198,R,ugm-3,157.61104,R,ugm-3
11-01-2013,02:00,50.47574,R,ugm-3,71.92913,R,ugm-3,149.32418,R,ugm-3
11-01-2013,03:00,43.60218,R,ugm-3,69.75127,R,ugm-3,136.60701,R,ugm-3
11-01-2013,04:00,48.04911,R,ugm-3,72.40868,R,ugm-3,146.08297,R,ugm-3
11-01-2013,05:00,74.02195,R,ugm-3,78.18157,R,ugm-3,191.68031,R,ugm-3
11-01-2013,06:00,101.01758,R,ugm-3,90.13995,R,ugm-3,245.03141,R,ugm-3
11-01-2013,07:00,138.16592,R,ugm-3,93.05269,R,ugm-3,304.90414,R,ugm-3
11-01-2013,08:00,136.98503,R,ugm-3,93.75601,R,ugm-3,303.79680,R,ugm-3
11-01-2013,09:00,187.11995,R,ugm-3,98.10934,R,ugm-3,385.02259,R,ugm-3
11-01-2013,10:00,194.59720,R,ugm-3,99.07419,R,ugm-3,397.45240,R,ugm-3
11-01-2013,11:00,189.55998,R,ugm-3,104.58315,R,ugm-3,395.23773,R,ugm-3
11-01-2013,12:00,153.23798,R,ugm-3,97.57193,R,ugm-3,332.53355,R,ugm-3
11-01-2013,13:00,173.70118,R,ugm-3,102.93123,R,ugm-3,369.26933,R,ugm-3
11-01-2013,14:00,203.37289,R,ugm-3,110.97042,R,ugm-3,422.80450,R,ugm-3
11-01-2013,15:00,180.94207,R,ugm-3,112.75048,R,ugm-3,390.19112,R,ugm-3
11-01-2013,16:00,156.38616,R,ugm-3,109.97449,R,ugm-3,349.76326,R,ugm-3
11-01-2013,17:00,137.85128,R,ugm-3,107.81097,R,ugm-3,319.17999,R,ugm-3
11-01-2013,18:00,125.06147,R,ugm-3,102.19300,R,ugm-3,293.95125,R,ugm-3
11-01-2013,19:00,150.24726,R,ugm-3,106.46505,R,ugm-3,336.84098,R,ugm-3
11-01-2013,20:00,141.15663,R,ugm-3,105.94342,R,ugm-3,322.38056,R,ugm-3
11-01-2013,21:00,217.77609,R,ugm-3,124.51475,R,ugm-3,458.43342,R,ugm-3
11-01-2013,22:00,167.99478,R,ugm-3,108.54298,R,ugm-3,366.13139,R,ugm-3
11-01-2013,23:00,111.83947,R,ugm-3,93.23772,R,ugm-3,264.72251,R,ugm-3
11-01-2013,24:00,102.27642,R,ugm-3,87.59346,R,ugm-3,244.41511,R,ugm-3
12-01-2013,01:00,82.19291,R,ugm-3,75.78345,R,ugm-3,201.81083,R,ugm-3
12-01-2013,02:00,76.46448,R,ugm-3,77.08331,R,ugm-3,194.32721,R,ugm-3
12-01-2013,03:00,55.92924,R,ugm-3,70.84378,R,ugm-3,156.60076,R,ugm-3
12-01-2013,04:00,46.39114,R,ugm-3,66.59516,R,ugm-3,137.72725,R,ugm-3
12-01-2013,05:00,28.14221,R,ugm-3,58.92652,R,ugm-3,102.07730,R,ugm-3
12-01-2013,06:00,13.99221,R,ugm-3,48.98199,R,ugm-3,70.43642,R,ugm-3
12-01-2013,07:00,31.68922,R,ugm-3,56.32504,R,ugm-3,104.91449,R,ugm-3
12-01-2013,08:00,30.62496,R,ugm-3,66.40678,R,ugm-3,113.36439,R,ugm-3
12-01-2013,09:00,49.74139,R,ugm-3,75.82919,R,ugm-3,152.09826,R,ugm-3
12-01-2013,10:00,39.57246,R,ugm-3,74.08977,R,ugm-3,134.76670,R,ugm-3
12-01-2013,11:00,22.70304,R,ugm-3,62.08549,R,ugm-3,96.89633,R,ugm-3
12-01-2013,12:00,20.18038,R,ugm-3,58.73718,R,ugm-3,89.67999,R,ugm-3
12-01-2013,13:00,21.95404,R,ugm-3,56.32599,R,ugm-3,89.98838,R,ugm-3
12-01-2013,14:00,14.93798,R,ugm-3,48.64205,R,ugm-3,71.54663,R,ugm-3
12-01-2013,15:00,28.85161,R,ugm-3,57.40703,R,ugm-3,101.64555,R,ugm-3
12-01-2013,16:00,26.01338,R,ugm-3,56.33125,R,ugm-3,96.21788,R,ugm-3
12-01-2013,17:00,29.20647,R,ugm-3,57.66474,R,ugm-3,102.44737,R,ugm-3
12-01-2013,18:00,58.17626,R,ugm-3,71.16078,R,ugm-3,160.36313,R,ugm-3
12-01-2013,19:00,31.21618,R,ugm-3,63.15649,R,ugm-3,111.02063,R,ugm-3
12-01-2013,20:00,39.65104,R,ugm-3,63.36065,R,ugm-3,124.15807,R,ugm-3
12-01-2013,21:00,30.82234,R,ugm-3,52.28823,R,ugm-3,99.54849,R,ugm-3
12-01-2013,22:00,40.43965,R,ugm-3,60.85623,R,ugm-3,122.86283,R,ugm-3
12-01-2013,23:00,37.48324,R,ugm-3,59.28320,R,ugm-3,116.75669,R,ugm-3
12-01-2013,24:00,40.20329,R,ugm-3,60.97193,R,ugm-3,122.61611,R,ugm-3
13-01-2013,01:00,55.73311,R,ugm-3,64.94276,R,ugm-3,150.39900,R,ugm-3
13-01-2013,02:00,40.82538,R,ugm-3,57.16016,R,ugm-3,119.75820,R,ugm-3
13-01-2013,03:00,33.54270,R,ugm-3,53.83114,R,ugm-3,105.26257,R,ugm-3
13-01-2013,04:00,27.22076,R,ugm-3,51.04654,R,ugm-3,92.78446,R,ugm-3
13-01-2013,05:00,24.92947,R,ugm-3,47.94972,R,ugm-3,86.17438,R,ugm-3
13-01-2013,06:00,34.33256,R,ugm-3,47.61599,R,ugm-3,100.25851,R,ugm-3
13-01-2013,07:00,19.24054,R,ugm-3,45.49120,R,ugm-3,74.99295,R,ugm-3
13-01-2013,08:00,29.67077,R,ugm-3,51.61407,R,ugm-3,97.10862,R,ugm-3
13-01-2013,09:00,27.26068,R,ugm-3,50.79983,R,ugm-3,92.59895,R,ugm-3
13-01-2013,10:00,56.49677,R,ugm-3,65.70728,R,ugm-3,152.33445,R,ugm-3
13-01-2013,11:00,65.22818,R,ugm-3,64.24135,R,ugm-3,164.25650,R,ugm-3
13-01-2013,12:00,50.84712,R,ugm-3,62.26192,R,ugm-3,140.22641,R,ugm-3
13-01-2013,13:00,64.35881,R,ugm-3,67.98364,R,ugm-3,166.66577,R,ugm-3
13-01-2013,14:00,74.51246,R,ugm-3,71.93534,R,ugm-3,186.18618,R,ugm-3
13-01-2013,15:00,82.53259,R,ugm-3,70.57173,R,ugm-3,197.11994,R,ugm-3
13-01-2013,16:00,64.12182,R,ugm-3,65.50552,R,ugm-3,163.82427,R,ugm-3
13-01-2013,17:00,88.57763,R,ugm-3,76.86959,R,ugm-3,212.68673,R,ugm-3
13-01-2013,18:00,88.65621,R,ugm-3,77.92290,R,ugm-3,213.86053,R,ugm-3
13-01-2013,19:00,102.48409,R,ugm-3,81.30707,R,ugm-3,238.44715,R,ugm-3
13-01-2013,20:00,113.90219,R,ugm-3,82.70224,R,ugm-3,257.34983,R,ugm-3
13-01-2013,21:00,72.77403,R,ugm-3,76.45410,R,ugm-3,188.03939,R,ugm-3
13-01-2013,22:00,80.99218,R,ugm-3,74.41585,R,ugm-3,198.60213,R,ugm-3
13-01-2013,23:00,70.24575,R,ugm-3,78.10698,R,ugm-3,185.81563,R,ugm-3
13-01-2013,24:00,83.63895,R,ugm-3,83.39265,R,ugm-3,211.63725,R,ugm-3
14-01-2013,01:00,85.78888,R,ugm-3,81.78488,R,ugm-3,213.32599,R,ugm-3
14-01-2013,02:00,62.36334,R,ugm-3,79.83923,R,ugm-3,175.46168,R,ugm-3
14-01-2013,03:00,44.24017,R,ugm-3,72.60950,R,ugm-3,140.44348,R,ugm-3
14-01-2013,04:00,33.27859,R,ugm-3,73.08332,R,ugm-3,124.10978,R,ugm-3
14-01-2013,05:00,25.52319,R,ugm-3,63.13497,R,ugm-3,102.26998,R,ugm-3
14-01-2013,06:00,10.96096,R,ugm-3,40.91794,R,ugm-3,57.72451,R,ugm-3
14-01-2013,07:00,30.58816,R,ugm-3,66.56695,R,ugm-3,113.46815,R,ugm-3
14-01-2013,08:00,27.18490,R,ugm-3,65.04173,R,ugm-3,106.72467,R,ugm-3
14-01-2013,09:00,55.20082,R,ugm-3,70.65158,R,ugm-3,155.29165,R,ugm-3
14-01-2013,10:00,45.66428,R,ugm-3,68.87917,R,ugm-3,138.89675,R,ugm-3
14-01-2013,11:00,45.50649,R,ugm-3,70.48232,R,ugm-3,140.25797,R,ugm-3
14-01-2013,12:00,44.51676,R,ugm-3,66.30733,R,ugm-3,134.56541,R,ugm-3
14-01-2013,13:00,49.54244,R,ugm-3,63.36591,R,ugm-3,139.32993,R,ugm-3
14-01-2013,14:00,65.72679,R,ugm-3,69.85645,R,ugm-3,170.63612,R,ugm-3
14-01-2013,15:00,55.31994,R,ugm-3,71.33577,R,ugm-3,156.15849,R,ugm-3
14-01-2013,16:00,61.69052,R,ugm-3,71.89948,R,ugm-3,166.49030,R,ugm-3
14-01-2013,17:00,165.72158,R,ugm-3,107.33811,R,ugm-3,361.44098,R,ugm-3
14-01-2013,18:00,144.43266,R,ugm-3,100.13659,R,ugm-3,321.59692,R,ugm-3
14-01-2013,19:00,105.05977,R,ugm-3,95.17365,R,ugm-3,256.26305,R,ugm-3
14-01-2013,20:00,66.95351,R,ugm-3,87.52604,R,ugm-3,190.18665,R,ugm-3
14-01-2013,21:00,34.74292,R,ugm-3,64.77542,R,ugm-3,118.04715,R,ugm-3
14-01-2013,22:00,29.79675,R,ugm-3,60.17060,R,ugm-3,105.85831,R,ugm-3
14-01-2013,23:00,27.34362,R,ugm-3,59.22965,R,ugm-3,101.15595,R,ugm-3
14-01-2013,24:00,25.00837,R,ugm-3,57.73742,R,ugm-3,96.08304,R,ugm-3
15-01-2013,01:00,18.17815,R,ugm-3,47.31143,R,ugm-3,75.18420,R,ugm-3
15-01-2013,02:00,11.30844,R,ugm-3,34.79411,R,ugm-3,52.13348,R,ugm-3
15-01-2013,03:00,12.32582,R,ugm-3,36.31168,R,ugm-3,55.21101,R,ugm-3
15-01-2013,04:00,12.56343,R,ugm-3,36.50437,R,ugm-3,55.76802,R,ugm-3
15-01-2013,05:00,20.05409,R,ugm-3,42.12186,R,ugm-3,72.87103,R,ugm-3
15-01-2013,06:00,27.50515,R,ugm-3,45.32051,R,ugm-3,87.49448,R,ugm-3
15-01-2013,07:00,72.88504,R,ugm-3,63.04795,R,ugm-3,174.80346,R,ugm-3
15-01-2013,08:00,134.27621,R,ugm-3,83.11725,R,ugm-3,289.00457,R,ugm-3